This is the latest recevied weather packets stored in our database for station/object R8AHC-13. If no packets are shown the sender has not sent any weather packets the latest 10 day(s).
| Time | Temp. | Humidity | Pressure | Rain* | Wind** | Luminosity | Snow |
|---|---|---|---|---|---|---|---|
| 1777747022 | 7.78° C | 57% | 1022 hPa | - | 4.02 m/s, 270° | - | - |
| 1777743422 | 7.78° C | 57% | 1022 hPa | - | 4.92 m/s, 250° | - | - |
| 1777739822 | 10° C | 57% | 1021 hPa | - | 4.02 m/s, 260° | - | - |
| 1777736222 | 10° C | 57% | 1021 hPa | - | 4.02 m/s, 270° | - | - |
| 1777732622 | 10° C | 57% | 1020 hPa | - | 5.81 m/s, 290° | - | - |
| 1777729022 | 10° C | 57% | 1019 hPa | - | 4.92 m/s, 250° | - | - |
| 1777725421 | 10° C | 57% | 1019 hPa | - | 5.81 m/s, 220° | - | - |
| 1777721821 | 10° C | 57% | 1019 hPa | - | 4.92 m/s, 300° | - | - |
| 1777718222 | 10° C | 57% | 1018 hPa | - | 5.81 m/s, 310° | - | - |
| 1777714622 | 10° C | 57% | 1017 hPa | - | 5.81 m/s, 290° | - | - |
| 1777711022 | 10° C | 57% | 1017 hPa | - | 5.81 m/s, 300° | - | - |
| 1777707422 | 10° C | 57% | 1017 hPa | - | 4.92 m/s, 290° | - | - |
| 1777700222 | 3.89° C | 93% | 1016 hPa | - | 4.92 m/s, 310° | - | - |
| 1777696622 | 3.89° C | 93% | 1016 hPa | - | 4.02 m/s, 300° | - | - |
| 1777693022 | 3.89° C | 93% | 1015 hPa | - | 4.02 m/s, 290° | - | - |
| 1777689422 | 3.89° C | 93% | 1015 hPa | - | 4.02 m/s, 250° | - | - |
| 1777685822 | 3.89° C | 93% | 1015 hPa | - | 4.92 m/s, 250° | - | - |
| 1777682222 | 3.89° C | 93% | 1014 hPa | - | 5.81 m/s, 260° | - | - |
| 1777678622 | 3.89° C | 93% | 1013 hPa | - | 4.92 m/s, 260° | - | - |
| 1777671422 | 7.22° C | 100% | 1013 hPa | - | 5.81 m/s, 250° | - | - |
| 1777667823 | 7.22° C | 100% | 1013 hPa | - | 4.92 m/s, 260° | - | - |
| 1777664222 | 7.22° C | 100% | 1013 hPa | - | 5.81 m/s, 260° | - | - |
| 1777660622 | 7.22° C | 100% | 1012 hPa | - | 3.13 m/s, 290° | - | - |
| 1777657021 | 7.22° C | 100% | 1012 hPa | - | 4.02 m/s, 320° | - | - |
| 1777653422 | 7.22° C | 100% | 1012 hPa | - | 7.15 m/s, 330° | - | - |
* Rain since midnight (hover to see other rain measurements)
** Current wind speed in m/s (hover to see current wind gust speed)